[[{"header":{"parameterUnit":"m.s-1","parameterCategory":1,"la1":30.2991,"la2":30.254,"lo1":-89.0895,"lo2":-89.0444,"dy":0.0017,"dx":0.0017,"nx":28,"ny":28,"refTime":"2024-11-26T09:00:00:Z","depth":0,"parameterNumber":2,"parameterNumberName":"U-component_of_WINDS"},"data":[0,0,0,0,0,0,0,0,0,0,0,0,0,0,0,0,0,0,0,0,0,0,0,0,0,0,0,0,0,0,0,0,0,0,0,0,0,0,0,0,0,0,0,0,0,0,0,0,0,0,0,0,0,0,0,0,0,0,3.1193,3.1195,0,3.1378,3.138,3.1382,3.142,3.1418,3.1417,3.1415,3.1607,3.1613,3.162,0,0,0,0,0,0,0,0,0,0,0,0,0,3.0874,3.088,3.1192,3.1195,3.1197,3.1377,3.138,3.1382,3.142,3.1418,3.1416,3.1415,3.1605,3.1613,3.162,0,0,0,0,0,0,0,0,0,0,0,0,0,3.1031,3.0881,3.1192,3.1237,3.1243,3.1377,3.138,3.1383,3.142,3.1418,3.1416,3.1414,3.1603,3.1612,3.1621,3.1723,0,0,3.1651,3.1655,0,0,0,0,0,0,0,0,3.1022,3.1043,3.1228,3.1235,3.1241,3.1373,3.1338,3.1497,3.1421,3.1353,3.1415,3.1413,3.1531,3.1547,3.1586,3.1732,3.1741,3.1652,3.1658,3.1662,3.1664,0,0,0,0,0,0,0,3.1011,3.1035,3.1266,3.1231,3.1239,3.1249,3.1269,3.1368,3.1452,3.1359,3.1362,3.1383,3.1534,3.1577,3.1591,3.1743,3.1651,3.166,3.1666,3.167,3.1984,3.1987,0,0,0,0,0,0,3.0992,3.1026,3.126,3.1271,3.1124,3.1257,3.1279,3.1333,3.1451,3.1467,3.1385,3.1384,3.1561,3.158,3.1598,3.1726,3.1662,3.1671,3.1676,3.1982,3.1985,3.1988,0,0,0,0,0,0,3.0985,3.1012,3.1252,3.115,3.1181,3.1265,3.1325,3.1338,3.138,3.1471,3.1486,3.1413,3.156,3.1584,3.1692,3.1733,3.1675,3.1684,3.1979,3.1983,3.1986,3.1981,0,0,0,0,0,0,3.0976,3.101,3.1048,3.115,3.1186,3.1343,3.1327,3.1343,3.1397,3.1398,3.1501,3.1516,3.156,3.1677,3.1702,3.1745,3.1691,3.1975,3.198,3.1985,3.1978,3.1984,3.199,0,0,0,0,0,3.0964,3.104,3.105,3.1078,3.1236,3.1345,3.1366,3.1415,3.14,3.144,3.1498,3.1512,3.1724,3.1688,3.1716,3.1762,3.1973,3.1979,3.1985,3.1975,3.1983,3.199,0,0,0,0,0,0,3.0941,3.1054,3.1067,3.1177,3.1251,3.1351,3.1403,3.1421,3.1502,3.1499,3.1558,3.1581,3.1686,3.1735,3.1693,3.1868,3.1848,3.186,3.1832,3.184,3.1845,3.1831,3.1699,0,0,0,0,0,3.0949,3.1027,3.1122,3.121,3.1247,3.1318,3.1368,3.1399,3.1479,3.151,3.1576,3.1653,3.1737,3.1791,3.1874,3.1986,3.2009,3.2032,3.2038,3.2042,3.2051,3.2115,3.2126,3.2007,3.2007,3.2006,0,0,3.0966,3.1037,3.1083,3.1207,3.1268,3.1349,3.1344,3.1429,3.149,3.1523,3.1629,3.168,3.177,3.1881,3.1933,3.1925,3.209,3.2049,3.2052,3.2059,3.2122,3.2133,3.2143,3.2011,3.201,3.2009,0,0,3.1037,3.1099,3.118,3.1241,3.1334,3.1381,3.1401,3.1498,3.1534,3.1641,3.1668,3.1741,3.1884,3.1948,3.1998,3.2096,3.2112,3.2121,3.2152,3.2213,3.2223,3.2231,3.2267,3.2278,3.213,3.213,3.213,0,3.1047,3.1168,3.1219,3.1304,3.1358,3.1392,3.1475,3.1532,3.1647,3.1684,3.1674,3.1855,3.1918,3.2045,3.2068,3.2108,3.2133,3.2109,3.2217,3.2226,3.2235,3.2269,3.2282,3.2131,3.2131,3.2131,3.2131,0,3.1175,3.1259,3.1314,3.1423,3.1484,3.1567,3.1632,3.1688,3.1715,3.1764,3.1873,3.195,3.2049,3.2081,3.2109,3.2212,3.2205,3.2205,3.2186,3.2246,3.2279,3.2293,3.2131,3.2131,3.2131,3.2131,0,0,3.1236,3.1374,3.1393,3.1444,3.1549,3.1616,3.1701,3.1797,3.1844,3.1923,3.1996,3.2118,3.2119,3.2177,3.2212,3.2266,3.2339,3.226,3.2263,3.2272,3.2459,3.2457,3.2472,3.2351,3.2354,3.2356,3.2451,0,3.1321,3.1473,3.1523,3.165,3.1729,3.1763,3.1838,3.1911,3.1959,3.2034,3.2088,3.2173,3.2169,3.2204,3.2259,3.2318,3.2377,3.2312,3.2421,3.2424,3.2396,3.2489,3.2488,3.2574,3.2464,3.2467,3.2468,0,3.1439,3.1519,3.1654,3.1751,3.1786,3.1852,3.1945,3.2015,3.21,3.2131,3.2196,3.2228,3.2319,3.2295,3.2423,3.2378,3.2426,3.2462,3.2466,3.2478,3.2449,3.2503,3.2603,3.2615,3.2489,3.2488,3.2486,0,3.147,3.1612,3.1711,3.1754,3.1869,3.1914,3.1965,3.2047,3.2102,3.2184,3.222,3.2312,3.2362,3.2433,3.2488,3.2465,3.2611,3.2592,3.2641,3.2639,3.2669,3.2667,3.2778,3.27,3.27,3.27,3.27,0,3.1559,3.164,3.1727,3.1788,3.1881,3.1937,3.2028,3.208,3.2153,3.2226,3.2262,3.233,3.2399,3.2476,3.252,3.262,3.2642,3.2671,3.2682,3.2668,3.2664,3.2699,3.2694,3.2703,3.2703,3.2702,3.2701,0,3.1608,3.167,3.178,3.188,3.1908,3.1971,3.2058,3.2119,3.2169,3.2261,3.2286,3.2366,3.2458,3.2521,3.264,3.267,3.2778,3.2788,3.2749,3.2754,3.2799,3.2794,3.2937,3.2959,3.2867,3.2867,3.2868,0,3.166,3.1723,3.1831,3.1882,3.1932,3.2014,3.207,3.213,3.2187,3.2289,3.2338,3.2434,3.2513,3.266,3.2729,3.282,3.2832,3.2876,3.2846,3.283,3.2833,3.2828,3.2835,3.288,3.2881,3.2882,3.2882,0,3.1746,3.1774,3.1854,3.1945,3.2011,3.2086,3.2161,3.2201,3.2274,3.2337,3.2432,3.2494,3.2616,3.271,3.2808,3.2861,3.2884,3.2891,3.2907,3.2893,3.2868,3.2883,3.2761,3.2887,3.2887,3.2886,3.2886,3.2886,3.1799,3.1857,3.1942,3.203,3.2093,3.2162,3.2225,3.2284,3.2364,3.2467,3.2498,3.2597,3.2682,3.2816,3.2871,3.295,3.2946,3.2969,3.2975,3.298,3.298,3.2856,3.2968,3.2968,3.2968,3.2968,3.2968,0,3.1886,3.1943,3.2024,3.2127,3.2197,3.2213,3.2298,3.2355,3.2442,3.2519,3.2596,3.2706,3.2798,3.2875,3.2971,3.3019,3.3033,3.3043,3.3039,3.3051,3.2978,3.2955,3.303,3.303,3.303,3.303,3.303,3.303,3.194,3.204,3.2078,3.2209,3.2266,3.2363,3.241,3.2475,3.2537,3.2658,3.2735,3.2784,3.2862,3.2963,3.3049,3.3069,3.3103,3.3111,3.3133,3.3063,3.3056,3.305,3.3028,3.3117,3.3117,3.32,3.32,3.3201]},{"header":{"parameterUnit":"m.s-1","parameterCategory":1,"la1":30.2991,"la2":30.254,"lo1":-89.0895,"lo2":-89.0444,"dy":0.0017,"dx":0.0017,"nx":28,"ny":28,"refTime":"2024-11-26T09:00:00:Z","depth":0,"parameterNumber":3,"parameterNumberName":"V-component_of_WINDS"},"data":[0,0,0,0,0,0,0,0,0,0,0,0,0,0,0,0,0,0,0,0,0,0,0,0,0,0,0,0,0,0,0,0,0,0,0,0,0,0,0,0,0,0,0,0,0,0,0,0,0,0,0,0,0,0,0,0,0,0,2.5954,2.5954,0,2.5993,2.5994,2.5994,2.5997,2.5997,2.5996,2.5996,2.6033,2.6035,2.6036,0,0,0,0,0,0,0,0,0,0,0,0,0,2.5879,2.588,2.5954,2.5954,2.5955,2.5993,2.5994,2.5994,2.5997,2.5997,2.5996,2.5996,2.6033,2.6035,2.6036,0,0,0,0,0,0,0,0,0,0,0,0,0,2.5914,2.5881,2.5954,2.5961,2.5962,2.5993,2.5994,2.5994,2.5997,2.5997,2.5996,2.5996,2.6032,2.6034,2.6037,2.6062,0,0,2.6043,2.6044,0,0,0,0,0,0,0,0,2.5912,2.5917,2.5959,2.5961,2.5962,2.599,2.5981,2.6017,2.5998,2.5984,2.5996,2.5995,2.6019,2.6022,2.6031,2.6064,2.6065,2.6043,2.6044,2.6045,2.6046,0,0,0,0,0,0,0,2.591,2.5915,2.5969,2.596,2.5962,2.5962,2.5966,2.5988,2.6004,2.5985,2.5985,2.599,2.602,2.6029,2.6032,2.6066,2.6043,2.6045,2.6046,2.6047,2.6122,2.6123,0,0,0,0,0,0,2.5906,2.5913,2.5968,2.5971,2.5935,2.5963,2.5968,2.5981,2.6004,2.6007,2.5991,2.599,2.6026,2.603,2.6033,2.6065,2.6045,2.6047,2.6048,2.6122,2.6122,2.6123,0,0,0,0,0,0,2.5904,2.5911,2.5966,2.5942,2.5949,2.5965,2.598,2.5982,2.5992,2.6009,2.6011,2.5997,2.6025,2.603,2.6055,2.6067,2.6048,2.605,2.6121,2.6122,2.6123,2.6129,0,0,0,0,0,0,2.5902,2.591,2.5921,2.5942,2.595,2.5989,2.5981,2.5984,2.5996,2.5995,2.6016,2.6018,2.6025,2.6052,2.6057,2.6069,2.6052,2.612,2.6121,2.6122,2.6128,2.613,2.6132,0,0,0,0,0,2.59,2.592,2.5921,2.5928,2.5964,2.5989,2.5994,2.6002,2.5997,2.6007,2.6018,2.6018,2.6064,2.6055,2.6061,2.6073,2.6119,2.6121,2.6122,2.6127,2.613,2.6132,0,0,0,0,0,0,2.5898,2.5923,2.5925,2.5953,2.5969,2.599,2.6003,2.6005,2.6022,2.6021,2.603,2.6035,2.6059,2.6069,2.6057,2.6099,2.6091,2.6094,2.6092,2.6095,2.6097,2.6095,2.6053,0,0,0,0,0,2.5902,2.5921,2.5941,2.5964,2.5972,2.5986,2.5998,2.6003,2.602,2.6026,2.6039,2.6054,2.6073,2.6084,2.6102,2.6129,2.6134,2.6141,2.6143,2.6145,2.6147,2.6162,2.6166,2.6129,2.6129,2.6129,0,0,2.5908,2.5924,2.5935,2.5964,2.5978,2.5997,2.5992,2.6012,2.6027,2.6029,2.6054,2.6064,2.6081,2.6108,2.612,2.6116,2.6158,2.6147,2.6148,2.615,2.6165,2.6168,2.6171,2.613,2.613,2.6129,0,0,2.593,2.5944,2.5965,2.5979,2.5999,2.6008,2.6013,2.6034,2.6041,2.6066,2.6069,2.6085,2.6116,2.6129,2.614,2.6168,2.6168,2.6173,2.6184,2.6199,2.6202,2.6205,2.6215,2.6218,2.6175,2.6175,2.6175,0,2.5935,2.5965,2.5975,2.5996,2.6009,2.6013,2.6034,2.6046,2.6071,2.608,2.6075,2.6115,2.6127,2.6157,2.6164,2.6172,2.6178,2.6171,2.6201,2.6204,2.6206,2.6216,2.622,2.6176,2.6176,2.6176,2.6176,0,2.5971,2.5992,2.6006,2.6031,2.6046,2.6066,2.6079,2.6092,2.6096,2.6106,2.6131,2.6146,2.6167,2.6175,2.6178,2.6205,2.6202,2.6199,2.6191,2.621,2.622,2.6223,2.6176,2.6176,2.6176,2.6176,0,0,2.5992,2.6024,2.6029,2.6041,2.6064,2.608,2.6101,2.6123,2.6134,2.6151,2.6169,2.6195,2.6193,2.6205,2.621,2.6224,2.6245,2.6219,2.622,2.6224,2.6276,2.6278,2.6282,2.6245,2.6246,2.6247,2.6274,0,2.6017,2.6056,2.6066,2.6098,2.6118,2.6122,2.6141,2.6157,2.6166,2.6183,2.6193,2.6213,2.6208,2.6215,2.6229,2.624,2.6255,2.6238,2.6261,2.6262,2.6257,2.6287,2.6289,2.6314,2.6278,2.6278,2.6279,0,2.6051,2.607,2.6105,2.6127,2.6135,2.6152,2.6173,2.619,2.6208,2.6214,2.6228,2.6232,2.6253,2.6244,2.6274,2.6261,2.6272,2.6278,2.628,2.6282,2.6272,2.629,2.6322,2.6326,2.6285,2.6284,2.6284,0,2.6064,2.6098,2.6124,2.6134,2.616,2.6171,2.6182,2.62,2.6212,2.6231,2.6239,2.6259,2.627,2.6285,2.6294,2.6286,2.6323,2.6314,2.6328,2.6328,2.6336,2.6335,2.637,2.6342,2.6342,2.6342,2.6342,0,2.6091,2.6112,2.613,2.6146,2.617,2.6181,2.6204,2.6215,2.6231,2.6248,2.6253,2.6269,2.628,2.6298,2.6305,2.6328,2.6333,2.6338,2.634,2.6338,2.6337,2.6345,2.6343,2.6343,2.6342,2.6342,2.6342,0,2.6109,2.6122,2.615,2.6173,2.6179,2.6196,2.6215,2.623,2.624,2.6262,2.6268,2.6283,2.6304,2.6315,2.634,2.6345,2.6372,2.6372,2.6366,2.6367,2.638,2.6379,2.6421,2.6428,2.6395,2.6396,2.6396,0,2.6125,2.6142,2.6167,2.6179,2.6191,2.6211,2.6225,2.6236,2.625,2.6272,2.6284,2.6306,2.6324,2.6357,2.637,2.6389,2.6391,2.6404,2.6393,2.6391,2.6391,2.639,2.6392,2.6406,2.6406,2.6406,2.6407,0,2.6152,2.6159,2.6178,2.6201,2.6217,2.6235,2.6252,2.6262,2.6276,2.6291,2.6314,2.6327,2.6355,2.6376,2.6397,2.6407,2.6409,2.641,2.6414,2.6412,2.6408,2.6411,2.6372,2.6409,2.6409,2.6408,2.6408,2.6408,2.617,2.6186,2.6206,2.6228,2.6243,2.6259,2.6275,2.6288,2.6307,2.6331,2.6336,2.6359,2.6377,2.6406,2.6417,2.6435,2.6432,2.6438,2.644,2.6441,2.6442,2.6406,2.6439,2.6439,2.6439,2.6439,2.6439,0,2.6198,2.6212,2.6232,2.6257,2.6275,2.6276,2.6296,2.631,2.6331,2.6348,2.6366,2.6392,2.6413,2.6428,2.6449,2.646,2.6462,2.6466,2.6465,2.6467,2.6443,2.6438,2.6464,2.6464,2.6464,2.6464,2.6464,2.6464,2.6215,2.6241,2.625,2.6283,2.6297,2.6321,2.6332,2.6347,2.6361,2.639,2.6408,2.6418,2.6434,2.6457,2.6476,2.6479,2.6487,2.6491,2.6494,2.6472,2.6469,2.6466,2.6461,2.6492,2.6492,2.6517,2.6517,2.6517]}]]